Terminal Aerodrome Forecast
Issued by NWS Binghamton, NY

Home | Current Version | Previous Version | Text Only | Print | Product List | Glossary On
Versions: 1 2 3 4 5 6 7 8 9 10 11 12 13 14 15 16 17 18 19 20 21
000
FTUS41 KBGM 271100
TAFAVP
TAF
KAVP 271130Z 2712/2812 30008KT 6SM -SHSN OVC015
     FM271700 31007KT P6SM OVC035
     FM280500 30005KT P6SM OVC050=

USA.gov is the U.S. government's official web portal to all federal, state and local government web resources and services.